Back to catalog

SL-8 R/B

AlivePO
NORAD 27870·ROCKET BODY·🇷🇺 Russia

Launched Aug 19, 2003 from Plesetsk Cosmodrome

Loading…

Next Passes (next 24 hours)

TLE

FreshSource: Space-Track

Epoch: Sep 14, 2026, 01:20 UTC

1 27870U 03037C   26257.05591755  .00000011  00000-0  98252-5 0  9999
2 27870  82.4660 278.1212 0022348 222.5980 165.2068 12.44887284 48325

Track SL-8 R/B in real time with AllMySat

Download on the App Store